Time,TemperatureF,DewpointF,PressureIn,WindDirection,WindDirectionDegrees,WindSpeedMPH,WindSpeedGustMPH,Humidity,HourlyPrecipIn,Conditions,Clouds,dailyrainin,SolarRadiationWatts/m^2,SoftwareType,DateUTC
2013-03-03 00:21:00,24.0,16.0,-100.00,NW,324,2.0,4.0,70,0.00,,,0.00,1.000000,,2013-03-03 06:21:00,
2013-03-03 00:32:00,24.0,16.0,-100.00,NW,324,2.0,4.0,70,0.00,,,0.00,1.000000,,2013-03-03 06:32:00,
2013-03-03 00:42:00,24.0,16.0,-100.00,NW,324,2.0,4.0,70,0.00,,,0.00,1.000000,,2013-03-03 06:42:00,
2013-03-03 00:52:00,24.0,16.0,-100.00,NW,324,2.0,4.0,70,0.00,,,0.00,1.000000,,2013-03-03 06:52:00,
2013-03-03 01:21:00,22.0,16.0,-100.00,WNW,301,0.0,2.0,76,0.00,,,0.00,1.000000,,2013-03-03 07:21:00,
2013-03-03 01:31:00,22.0,16.0,-100.00,WNW,301,0.0,2.0,76,0.00,,,0.00,1.000000,,2013-03-03 07:31:00,
2013-03-03 01:42:00,22.0,16.0,-100.00,WNW,301,0.0,2.0,76,0.00,,,0.00,1.000000,,2013-03-03 07:42:00,
2013-03-03 01:51:00,22.0,16.0,-100.00,WNW,301,0.0,2.0,76,0.00,,,0.00,1.000000,,2013-03-03 07:51:00,
2013-03-03 01:53:00,22.0,15.0,-100.00,WNW,302,3.0,4.0,75,0.00,,,0.00,1.000000,,2013-03-03 07:53:00,
2013-03-03 02:21:00,22.0,15.0,-100.00,WNW,302,3.0,4.0,75,0.00,,,0.00,1.000000,,2013-03-03 08:21:00,
2013-03-03 02:31:00,22.0,15.0,-100.00,WNW,302,3.0,4.0,75,0.00,,,0.00,1.000000,,2013-03-03 08:31:00,
2013-03-03 02:41:00,22.0,15.0,-100.00,WNW,302,3.0,4.0,75,0.00,,,0.00,1.000000,,2013-03-03 08:41:00,
2013-03-03 03:21:00,21.0,15.0,-100.00,WNW,301,2.0,5.0,76,0.00,,,0.00,1.000000,,2013-03-03 09:21:00,
2013-03-03 03:32:00,21.0,15.0,-100.00,WNW,301,2.0,5.0,76,0.00,,,0.00,1.000000,,2013-03-03 09:32:00,
2013-03-03 03:41:00,21.0,15.0,-100.00,WNW,301,2.0,5.0,76,0.00,,,0.00,1.000000,,2013-03-03 09:41:00,
2013-03-03 03:51:00,21.0,15.0,-100.00,WNW,301,2.0,5.0,76,0.00,,,0.00,1.000000,,2013-03-03 09:51:00,
2013-03-03 04:11:00,19.0,14.0,-100.00,West,265,0.0,4.0,82,0.00,,,0.00,1.000000,,2013-03-03 10:11:00,
2013-03-03 04:21:00,19.0,14.0,-100.00,West,265,0.0,4.0,82,0.00,,,0.00,1.000000,,2013-03-03 10:21:00,
2013-03-03 04:32:00,19.0,14.0,-100.00,West,265,0.0,4.0,82,0.00,,,0.00,1.000000,,2013-03-03 10:32:00,
2013-03-03 04:42:00,19.0,14.0,-100.00,West,265,0.0,4.0,82,0.00,,,0.00,1.000000,,2013-03-03 10:42:00,
2013-03-03 04:52:00,19.0,14.0,-100.00,West,265,0.0,4.0,82,0.00,,,0.00,1.000000,,2013-03-03 10:52:00,
2013-03-03 05:11:00,18.0,15.0,-100.00,WSW,252,0.0,0.0,87,0.00,,,0.00,1.000000,,2013-03-03 11:11:00,
2013-03-03 05:21:00,18.0,15.0,-100.00,WSW,252,0.0,0.0,87,0.00,,,0.00,1.000000,,2013-03-03 11:21:00,
2013-03-03 05:32:00,18.0,15.0,-100.00,WSW,252,0.0,0.0,87,0.00,,,0.00,1.000000,,2013-03-03 11:32:00,
2013-03-03 05:42:00,18.0,15.0,-100.00,WSW,252,0.0,0.0,87,0.00,,,0.00,1.000000,,2013-03-03 11:42:00,
2013-03-03 05:52:00,18.0,15.0,-100.00,WSW,252,0.0,0.0,87,0.00,,,0.00,1.000000,,2013-03-03 11:52:00,
2013-03-03 06:11:00,18.0,15.0,-100.00,WSW,258,0.0,2.0,86,0.00,,,0.00,1.000000,,2013-03-03 12:11:00,
2013-03-03 06:21:00,18.0,15.0,-100.00,WSW,258,0.0,2.0,86,0.00,,,0.00,1.000000,,2013-03-03 12:21:00,
2013-03-03 06:32:00,18.0,15.0,-100.00,WSW,258,0.0,2.0,86,0.00,,,0.00,1.000000,,2013-03-03 12:32:00,
2013-03-03 06:42:00,18.0,15.0,-100.00,WSW,258,0.0,2.0,86,0.00,,,0.00,1.000000,,2013-03-03 12:42:00,
2013-03-03 06:52:00,18.0,15.0,-100.00,WSW,258,0.0,2.0,86,0.00,,,0.00,1.000000,,2013-03-03 12:52:00,
2013-03-03 07:11:00,19.0,15.0,-100.00,WSW,243,0.0,0.0,84,0.00,,,0.00,7.000000,,2013-03-03 13:11:00,
2013-03-03 07:22:00,19.0,15.0,-100.00,WSW,243,0.0,0.0,84,0.00,,,0.00,7.000000,,2013-03-03 13:22:00,
2013-03-03 07:32:00,19.0,15.0,-100.00,WSW,243,0.0,0.0,84,0.00,,,0.00,7.000000,,2013-03-03 13:32:00,
2013-03-03 07:42:00,19.0,15.0,-100.00,WSW,243,0.0,0.0,84,0.00,,,0.00,7.000000,,2013-03-03 13:42:00,
2013-03-03 07:51:00,19.0,15.0,-100.00,WSW,243,0.0,0.0,84,0.00,,,0.00,7.000000,,2013-03-03 13:51:00,
2013-03-03 08:21:00,27.0,19.0,-100.00,WNW,287,2.0,4.0,70,0.00,,,0.00,161.000000,,2013-03-03 14:21:00,
2013-03-03 08:32:00,27.0,19.0,-100.00,WNW,287,2.0,4.0,70,0.00,,,0.00,161.000000,,2013-03-03 14:32:00,
2013-03-03 08:42:00,27.0,19.0,-100.00,WNW,287,2.0,4.0,70,0.00,,,0.00,161.000000,,2013-03-03 14:42:00,
2013-03-03 08:52:00,27.0,19.0,-100.00,WNW,287,2.0,4.0,70,0.00,,,0.00,161.000000,,2013-03-03 14:52:00,
2013-03-03 09:11:00,33.0,19.0,-100.00,ESE,108,2.0,4.0,56,0.00,,,0.00,368.000000,,2013-03-03 15:11:00,
2013-03-03 09:22:00,33.0,19.0,-100.00,ESE,108,2.0,4.0,56,0.00,,,0.00,368.000000,,2013-03-03 15:22:00,
2013-03-03 09:32:00,33.0,19.0,-100.00,ESE,108,2.0,4.0,56,0.00,,,0.00,368.000000,,2013-03-03 15:32:00,
2013-03-03 09:42:00,33.0,19.0,-100.00,ESE,108,2.0,4.0,56,0.00,,,0.00,368.000000,,2013-03-03 15:42:00,
2013-03-03 09:51:00,33.0,19.0,-100.00,ESE,108,2.0,4.0,56,0.00,,,0.00,368.000000,,2013-03-03 15:51:00,
2013-03-03 10:12:00,34.0,17.0,-100.00,WSW,241,7.0,10.0,50,0.00,,,0.00,587.000000,,2013-03-03 16:12:00,
2013-03-03 10:22:00,34.0,17.0,-100.00,WSW,241,7.0,10.0,50,0.00,,,0.00,587.000000,,2013-03-03 16:22:00,
2013-03-03 10:32:00,34.0,17.0,-100.00,WSW,241,7.0,10.0,50,0.00,,,0.00,587.000000,,2013-03-03 16:32:00,
2013-03-03 10:42:00,34.0,17.0,-100.00,WSW,241,7.0,10.0,50,0.00,,,0.00,587.000000,,2013-03-03 16:42:00,
2013-03-03 10:52:00,34.0,17.0,-100.00,WSW,241,7.0,10.0,50,0.00,,,0.00,587.000000,,2013-03-03 16:52:00,
2013-03-03 11:11:00,37.0,17.0,-100.00,SW,225,6.0,10.0,43,0.00,,,0.00,743.000000,,2013-03-03 17:11:00,
2013-03-03 11:22:00,37.0,17.0,-100.00,SW,225,6.0,10.0,43,0.00,,,0.00,743.000000,,2013-03-03 17:22:00,
2013-03-03 11:32:00,37.0,17.0,-100.00,SW,225,6.0,10.0,43,0.00,,,0.00,743.000000,,2013-03-03 17:32:00,
2013-03-03 11:42:00,37.0,17.0,-100.00,SW,225,6.0,10.0,43,0.00,,,0.00,743.000000,,2013-03-03 17:42:00,
2013-03-03 11:52:00,37.0,17.0,-100.00,SW,225,6.0,10.0,43,0.00,,,0.00,743.000000,,2013-03-03 17:52:00,
2013-03-03 12:21:00,40.0,18.0,-100.00,SSW,196,5.0,11.0,41,0.00,,,0.00,757.000000,,2013-03-03 18:21:00,
2013-03-03 12:32:00,40.0,18.0,-100.00,SSW,196,5.0,11.0,41,0.00,,,0.00,757.000000,,2013-03-03 18:32:00,
2013-03-03 12:42:00,40.0,18.0,-100.00,SSW,196,5.0,11.0,41,0.00,,,0.00,757.000000,,2013-03-03 18:42:00,
2013-03-03 12:52:00,40.0,18.0,-100.00,SSW,196,5.0,11.0,41,0.00,,,0.00,757.000000,,2013-03-03 18:52:00,
2013-03-03 13:11:00,42.0,19.0,-100.00,SE,140,6.0,10.0,39,0.00,,,0.00,690.000000,,2013-03-03 19:11:00,
2013-03-03 13:22:00,42.0,19.0,-100.00,SE,140,6.0,10.0,39,0.00,,,0.00,690.000000,,2013-03-03 19:22:00,
2013-03-03 13:32:00,42.0,19.0,-100.00,SE,140,6.0,10.0,39,0.00,,,0.00,690.000000,,2013-03-03 19:32:00,
2013-03-03 13:42:00,42.0,19.0,-100.00,SE,140,6.0,10.0,39,0.00,,,0.00,690.000000,,2013-03-03 19:42:00,
2013-03-03 13:51:00,42.0,19.0,-100.00,SE,140,6.0,10.0,39,0.00,,,0.00,690.000000,,2013-03-03 19:51:00,
2013-03-03 14:11:00,42.0,21.0,-100.00,SSE,152,9.0,14.0,42,0.00,,,0.00,845.000000,,2013-03-03 20:11:00,
2013-03-03 14:21:00,42.0,21.0,-100.00,SSE,152,9.0,14.0,42,0.00,,,0.00,845.000000,,2013-03-03 20:21:00,
2013-03-03 14:32:00,42.0,21.0,-100.00,SSE,152,9.0,14.0,42,0.00,,,0.00,845.000000,,2013-03-03 20:32:00,
2013-03-03 14:42:00,42.0,21.0,-100.00,SSE,152,9.0,14.0,42,0.00,,,0.00,845.000000,,2013-03-03 20:42:00,
2013-03-03 14:52:00,42.0,21.0,-100.00,SSE,152,9.0,14.0,42,0.00,,,0.00,845.000000,,2013-03-03 20:52:00,
2013-03-03 15:11:00,42.0,22.0,-100.00,SSE,165,7.0,13.0,45,0.00,,,0.00,586.000000,,2013-03-03 21:11:00,
2013-03-03 15:22:00,42.0,22.0,-100.00,SSE,165,7.0,13.0,45,0.00,,,0.00,586.000000,,2013-03-03 21:22:00,
2013-03-03 15:32:00,42.0,22.0,-100.00,SSE,165,7.0,13.0,45,0.00,,,0.00,586.000000,,2013-03-03 21:32:00,
2013-03-03 15:42:00,42.0,22.0,-100.00,SSE,165,7.0,13.0,45,0.00,,,0.00,586.000000,,2013-03-03 21:42:00,
2013-03-03 15:52:00,42.0,22.0,-100.00,SSE,165,7.0,13.0,45,0.00,,,0.00,586.000000,,2013-03-03 21:52:00,
2013-03-03 16:11:00,41.0,23.0,-100.00,SSE,166,8.0,13.0,48,0.00,,,0.00,328.000000,,2013-03-03 22:11:00,
2013-03-03 16:22:00,41.0,23.0,-100.00,SSE,166,8.0,13.0,48,0.00,,,0.00,328.000000,,2013-03-03 22:22:00,
2013-03-03 16:32:00,41.0,23.0,-100.00,SSE,166,8.0,13.0,48,0.00,,,0.00,328.000000,,2013-03-03 22:32:00,
2013-03-03 16:42:00,41.0,23.0,-100.00,SSE,166,8.0,13.0,48,0.00,,,0.00,328.000000,,2013-03-03 22:42:00,
2013-03-03 16:52:00,41.0,23.0,-100.00,SSE,166,8.0,13.0,48,0.00,,,0.00,328.000000,,2013-03-03 22:52:00,
2013-03-03 17:11:00,41.0,23.0,-100.00,South,185,7.0,11.0,49,0.00,,,0.00,158.000000,,2013-03-03 23:11:00,
2013-03-03 17:21:00,41.0,23.0,-100.00,South,185,7.0,11.0,49,0.00,,,0.00,158.000000,,2013-03-03 23:21:00,
2013-03-03 17:32:00,41.0,23.0,-100.00,South,185,7.0,11.0,49,0.00,,,0.00,158.000000,,2013-03-03 23:32:00,
2013-03-03 17:42:00,41.0,23.0,-100.00,South,185,7.0,11.0,49,0.00,,,0.00,158.000000,,2013-03-03 23:42:00,
2013-03-03 17:52:00,41.0,23.0,-100.00,South,185,7.0,11.0,49,0.00,,,0.00,158.000000,,2013-03-03 23:52:00,
2013-03-03 18:11:00,40.0,22.0,-100.00,SSE,167,5.0,12.0,49,0.00,,,0.00,41.000000,,2013-03-04 00:11:00,
2013-03-03 18:21:00,40.0,22.0,-100.00,SSE,167,5.0,12.0,49,0.00,,,0.00,41.000000,,2013-03-04 00:21:00,
2013-03-03 18:32:00,40.0,22.0,-100.00,SSE,167,5.0,12.0,49,0.00,,,0.00,41.000000,,2013-03-04 00:32:00,
2013-03-03 18:42:00,40.0,22.0,-100.00,SSE,167,5.0,12.0,49,0.00,,,0.00,41.000000,,2013-03-04 00:42:00,
2013-03-03 18:52:00,40.0,22.0,-100.00,SSE,167,5.0,12.0,49,0.00,,,0.00,41.000000,,2013-03-04 00:52:00,
2013-03-03 19:21:00,39.0,24.0,-100.00,South,179,3.0,8.0,54,0.00,,,0.00,2.000000,,2013-03-04 01:21:00,
2013-03-03 19:32:00,39.0,24.0,-100.00,South,179,3.0,8.0,54,0.00,,,0.00,2.000000,,2013-03-04 01:32:00,
2013-03-03 19:42:00,39.0,24.0,-100.00,South,179,3.0,8.0,54,0.00,,,0.00,2.000000,,2013-03-04 01:42:00,
2013-03-03 19:51:00,39.0,24.0,-100.00,South,179,3.0,8.0,54,0.00,,,0.00,2.000000,,2013-03-04 01:51:00,
2013-03-03 20:11:00,38.0,25.0,-100.00,SE,144,4.0,5.0,58,0.00,,,0.00,1.000000,,2013-03-04 02:11:00,
2013-03-03 20:22:00,38.0,25.0,-100.00,SE,144,4.0,5.0,58,0.00,,,0.00,1.000000,,2013-03-04 02:22:00,
2013-03-03 20:32:00,38.0,25.0,-100.00,SE,144,4.0,5.0,58,0.00,,,0.00,1.000000,,2013-03-04 02:32:00,
2013-03-03 20:42:00,38.0,25.0,-100.00,SE,144,4.0,5.0,58,0.00,,,0.00,1.000000,,2013-03-04 02:42:00,
2013-03-03 20:52:00,38.0,25.0,-100.00,SE,144,4.0,5.0,58,0.00,,,0.00,1.000000,,2013-03-04 02:52:00,
2013-03-03 21:22:00,38.0,26.0,-100.00,ESE,120,4.0,6.0,61,0.00,,,0.00,1.000000,,2013-03-04 03:22:00,
2013-03-03 21:32:00,38.0,26.0,-100.00,ESE,120,4.0,6.0,61,0.00,,,0.00,1.000000,,2013-03-04 03:32:00,
2013-03-03 21:42:00,38.0,26.0,-100.00,ESE,120,4.0,6.0,61,0.00,,,0.00,1.000000,,2013-03-04 03:42:00,
2013-03-03 21:52:00,38.0,26.0,-100.00,ESE,120,4.0,6.0,61,0.00,,,0.00,1.000000,,2013-03-04 03:52:00,
2013-03-03 22:22:00,37.0,27.0,-100.00,ESE,118,4.0,7.0,66,0.00,,,0.00,1.000000,,2013-03-04 04:22:00,
2013-03-03 22:32:00,37.0,27.0,-100.00,ESE,118,4.0,7.0,66,0.00,,,0.00,1.000000,,2013-03-04 04:32:00,
2013-03-03 22:42:00,37.0,27.0,-100.00,ESE,118,4.0,7.0,66,0.00,,,0.00,1.000000,,2013-03-04 04:42:00,
2013-03-03 22:51:00,37.0,27.0,-100.00,ESE,118,4.0,7.0,66,0.00,,,0.00,1.000000,,2013-03-04 04:51:00,
2013-03-03 23:11:00,38.0,28.0,-100.00,SE,134,5.0,8.0,67,0.00,,,0.00,1.000000,,2013-03-04 05:11:00,
2013-03-03 23:22:00,38.0,28.0,-100.00,SE,134,5.0,8.0,67,0.00,,,0.00,1.000000,,2013-03-04 05:22:00,
2013-03-03 23:32:00,38.0,28.0,-100.00,SE,134,5.0,8.0,67,0.00,,,0.00,1.000000,,2013-03-04 05:32:00,
2013-03-03 23:42:00,38.0,28.0,-100.00,SE,134,5.0,8.0,67,0.00,,,0.00,1.000000,,2013-03-04 05:42:00,
2013-03-03 23:52:00,38.0,28.0,-100.00,SE,134,5.0,8.0,67,0.00,,,0.00,1.000000,,2013-03-04 05:52:00,